Location: Central Falls
(41.8900°N, 71.3929°W)
Time: 03:47:56
(UTC+00:00)

Tiros 1 - Pass Details

Date: 06 December 2023
Orbit: 625 x 658 km, 48.4° (Epoch: 01 March)

Event Time Altitude Azimuth Distance (km) Brightness Sun altitude
Rises 13:15:05 0° 297° (WNW) 2,989 10.0 10.6°
Reaches altitude 10° 13:17:28 10° 300° (WNW) 2,074 9.2 10.9°
Maximum altitude 13:22:14 64° 22° (NNE) 730 7.5 11.5°
Drops below altitude 10° 13:26:57 10° 104° (ESE) 2,055 10.9 12.1°
Sets 13:29:18 0° 108° (ESE) 2,959 11.7 12.4°
